Regional Weather Roundup
Issued by NWS

Home | Current Version | Previous Version | Graphics & Text | Print | Product List | Glossary On
Versions: 1 2 3 4 5 6 7 8 9 10 11 12 13 14 15 16 17 18 19 20 21 22 23 24 25 26 27 28 29 30 31 32 33 34 35 36 37 38 39 40 41 42 43 44 45 46 47 48 49 50
000
ASUS43 KMPX 301010
RWRMN
WEATHER ROUNDUP FOR MINNESOTA
NATIONAL WEATHER SERVICE TWIN CITIES/CHANHASSEN MN
500 AM CDT THU OCT 30 2014


NOTE: "FAIR" INDICATES FEW OR NO CLOUDS BELOW 12,000 FEET WITH NO
SIGNIFICANT WEATHER AND/OR OBSTRUCTIONS TO VISIBILITY. N/A MEANS
CURRENT SKY AND/OR WEATHER CONDITIONS ARE NOT AVAILABLE.

MNZ060>063-068>070-301100-
   Twin Cities Metro

CITY           SKY/WX    TMP DP  RH WIND       PRES   REMARKS
TWIN CITIES    CLOUDY    39  32  76 CALM      30.05S
ST PAUL        CLOUDY    38  34  85 S3        30.06F
CRYSTAL        CLOUDY    40  34  79 NE3       30.03F
BLAINE         DRIZZLE   39  37  93 CALM      30.05R
LAKEVILLE        N/A     34  32  93 CALM      30.04S
EDEN PRAIRIE   CLOUDY    39  33  79 E5        30.03S
SOUTH ST PAUL  CLOUDY    38  33  82 CALM      30.05S
LAKE ELMO      CLOUDY    37  34  87 CALM      30.06S
$$
MNZ001>005-007-008-013>017-022>024-027-028-301100-
   Northwest Minnesota

CITY           SKY/WX    TMP DP  RH WIND       PRES   REMARKS
BEMIDJI        FLURRIES  35  32  90 CALM      30.02S
HALLOCK        CLEAR     30  27  86 N6        30.09R WCI  24
ROSEAU         CLOUDY    34  28  80 N5        30.08R WCI  30
WARROAD        CLOUDY    34  28  80 CALM      30.08R
THIEF RVR FALL CLOUDY    36  32  87 NE5       30.05R
CROOKSTON      CLOUDY    37  36  93 E6        30.06R
FOSSTON        LGT RAIN  34  32  93 CALM      30.03S
DETROIT LAKES  PTCLDY    37  36  93 SE3       30.01R
MOORHEAD       DRIZZLE   39  39 100 CALM      30.02R
PARK RAPIDS    CLOUDY    35  33  92 CALM      30.01S
MAHNOMEN       RAIN      36  35  96 E3        30.01R
$$
MNZ006-009>011-018-025>026-301100-
   North Central Minnesota

CITY           SKY/WX    TMP DP  RH WIND       PRES   REMARKS
BAUDETTE       CLOUDY    34  30  85 W3        30.06R
FLAG ISLAND    CLOUDY    36  34  93 NW15      30.06R
INTL FALLS     CLOUDY    34  32  92 W3        30.04S
WASKISH        CLOUDY    34  32  93 CALM      30.05S
BIG FORK       CLOUDY    34  32  93 CALM      30.04S
LONGVILLE      CLOUDY    34  30  86 CALM      30.02S
GRAND RAPIDS   CLOUDY    34  30  86 S3        30.03S
CRANE LAKE     CLOUDY    34  32  93 CALM      30.06R
ORR            CLOUDY    34  30  86 CALM      30.01S
COOK           CLOUDY    34  34 100 CALM      30.03F
WALKER         CLOUDY    34  32  93 CALM      30.02S
$$
MNZ012-019>021-037-301100-
   Northeast Minnesota

CITY           SKY/WX    TMP DP  RH WIND       PRES   REMARKS
DULUTH         CLOUDY    36  32  85 W5        30.03S
ELY            CLOUDY    34  34 100 W3        30.02S
HIBBING        CLOUDY    35  32  88 CALM      30.03F
EVELETH        CLOUDY    34  34 100 CALM      30.03F
DULUTH HARBOR  CLOUDY    39  34  81 CALM      30.07R
TWO HARBORS    CLOUDY    37 N/A N/A CALM      30.02S
SILVER BAY     CLOUDY    36  34  93 CALM      30.01F
GRAND MARAIS     N/A     42  34  73 CALM      30.02S
G MARAIS ARPRT CLOUDY    34  30  86 CALM      30.00S
$$
MNZ029>031-032-039>041-046>048-054>057-064-301100-
   West Central Minnesota

CITY           SKY/WX    TMP DP  RH WIND       PRES   REMARKS
FERGUS FALLS   CLOUDY    39  36  87 SE5       30.01S
WHEATON        CLOUDY    36  34  93 CALM      30.02R
MORRIS         MOCLDY    37  36  93 SE7       29.98S
ALEXANDRIA     CLOUDY    38  34  85 SE7       30.00F
ELBOW LAKE     CLOUDY    38  36  91 SE5       29.99S
WADENA         CLOUDY    36  34  93 CALM      30.00S
GLENWOOD       MOCLDY    37  36  93 SE5       30.00S
APPLETON       CLOUDY    39  37  93 CALM      29.99S
BENSON         CLOUDY    39  36  87 SE6       29.99S
ORTONVILLE     MOCLDY    36  34  93 SE3       29.99S FOG
MADISON        CLOUDY    43  41  93 CALM      29.98F FOG
WILLMAR        MOCLDY    39  36  87 E6        30.01F
$$
MNZ033>034-036-042>043-049>051-058-059-301100-
   Central Minnesota

CITY           SKY/WX    TMP DP  RH WIND       PRES   REMARKS
ST CLOUD       CLOUDY    39  35  86 CALM      30.03F
SAUK CENTRE    CLOUDY    37  33  85 CALM      30.01S
PAYNESVILLE    CLOUDY    36  33  90 CALM      30.02S
AITKIN         CLOUDY    37  34  87 CALM      30.01S
PINE RIVER     LGT RAIN  36  36 100 CALM      30.05S
BRAINERD       CLOUDY    35  33  92 SE3       30.03S
STAPLES        CLOUDY    36  34  93 SE3       30.01F
LONG PRAIRIE   CLOUDY    36  34  93 CALM      30.01S
LITTLE FALLS   MOCLDY    36  32  87 CALM      30.02F
LITCHFIELD     DRIZZLE   39  37  93 SE5       30.02F
BUFFALO        CLOUDY    38  33  82 CALM      30.04F
MAPLE LAKE     CLOUDY    40  36  86 CALM      30.04F
$$
MNZ037-044-045-052-053-301100-
   East Central Minnesota

CITY           SKY/WX    TMP DP  RH WIND       PRES   REMARKS
PRINCETON      CLOUDY    37  36  93 CALM      30.04F
MORA           MOCLDY    34  32  93 CALM      30.06S
CAMBRIDGE      CLOUDY    39  30  70 CALM      30.03F
RUSH CITY      CLOUDY    35  32  87 CALM      30.05F
MOOSE LAKE     CLOUDY    34  32  93 CALM      30.03S
HINCKLEY       CLOUDY    36  34  93 CALM      30.05F
CLOQUET        CLOUDY    36  32  87 CALM      30.03S
MCGREGOR       CLOUDY    34  32  93 CALM      30.04S
$$
MNZ071>073-080-081-089-090-097-098-301100-
   Southwest Minnesota

CITY           SKY/WX    TMP DP  RH WIND       PRES   REMARKS
MONTEVIDEO     LGT RAIN  39  37  93 S6        30.00F
GRANITE FALLS  CLOUDY    39  36  88 CALM      30.01S
CANBY          CLOUDY    40  37  86 S3        30.00S
MARSHALL       CLOUDY    41  34  75 SE5       29.98S
REDWOOD FALLS  CLOUDY    40  35  83 SE6       30.00F
OLIVIA         CLOUDY    39  36  87 E5        30.00S
PIPESTONE      CLOUDY    43  34  70 CALM      29.96S
WINDOM           N/A     43  34  70 NE6       29.99S
WORTHINGTON    CLOUDY    43  30  61 S5        29.97F
JACKSON        CLOUDY    41  32  70 E6        29.99S
TRACY          CLOUDY    41  37  84 E3        29.99S
SLAYTON        CLOUDY    41  33  73 CALM      29.99S
$$
MNZ065>067-074>077-082>085-091>093-301100-
   South Central Minnesota

CITY           SKY/WX    TMP DP  RH WIND       PRES   REMARKS
MANKATO        CLOUDY    39  30  70 SE5       30.02F
NEW ULM        LGT RAIN  39  36  87 E3        30.00F
ST JAMES       MOCLDY    41  36  81 CALM      30.01F
FAIRMONT       CLOUDY    39  30  70 SE6       30.00F
GLENCOE        CLOUDY    39  35  87 CALM      30.03S
FARIBAULT      CLOUDY    39  34  81 CALM      30.04S
OWATONNA       CLOUDY    39  34  81 CALM      30.03F
WASECA         CLOUDY    37  32  81 SE3       30.04F
ALBERT LEA     CLOUDY    37  36  93 SE3       30.02F
$$
MNZ078>079-086>088-094>096-301100-
   Southeast Minnesota

CITY           SKY/WX    TMP DP  RH WIND       PRES   REMARKS
ROCHESTER      CLOUDY    36  32  85 S7        30.05S
RED WING       CLOUDY    36  32  87 CALM      30.05S
STANTON        CLOUDY    38  33  81 S3        30.03F
DODGE CENTER   CLOUDY    37  36  93 S6        30.04S
WINONA         MOCLDY    36  34  93 CALM      30.08R
AUSTIN         MOCLDY    36  32  87 S5        30.04S
PRESTON        CLOUDY    36  32  87 S6        30.06S
$$
ABBREVIATIONS USED IN REMARKS
   TC - TEMPERATURES IN CELSIUS
  WCI - WIND CHILL INDEX
   HX - HEAT INDEX
  VSB - VISIBILITY
$$



USA.gov is the U.S. government's official web portal to all federal, state and local government web resources and services.